{"data":{"norad_id":50827,"intl_designator":"2022-001AA","name":"STARLINK-3329","alt_names":[],"object_type":"PAYLOAD","status":"ACTIVE","operator":null,"country":"US","launch_date":"2022-01-06","launch_site_code":"AFETR","launch_vehicle":null,"mission":null,"orbit_class":"UNKNOWN","rcs_meters":null,"size_class":null,"mass_kg":null,"dimensions":null,"purposes":["comms"],"wikipedia_slug":null,"has_3d_model":false,"image_url":null,"decayed_at":null,"tle_current":{"epoch":"2026-09-19T00:17:32.752896Z","epoch_age_seconds":176908,"freshness":"STALE","line1":"1 50827U 22001AA  26262.01218464  .00000099  00000+0  14072-4 0  9996","line2":"2 50827  53.1615   8.3286 0001154  87.1325 272.9810 15.34386182259768","mean_motion":15.34386182,"eccentricity":0.0001154,"inclination_deg":53.1615,"raan_deg":8.3286,"arg_perigee_deg":87.1325,"mean_anomaly_deg":272.981,"bstar":1.4072e-5,"rev_number":25976,"period_min":93.848603232534,"perigee_km":461.9548728201,"apogee_km":463.53374822657,"semimajor_km":6840.8813105233,"source":"CELESTRAK","updated_at":"2026-09-20T09:00:39.579088Z"}}}